Wind_Speed
15 16 16 17 16 17 17 16 15 13 12 11 10 10 9 9 8 8 8 6 5 5 4 3 2 2 2 2 2 1 2 2 2 2 3 4 4 4 4 4 4 5 5
13 14 15 16 16 16 16 16 15 14 13 11 10 10 9 9 8 7 7 6 5 4 4 3 3 3 3 3 2 2 2 2 3 3 3 4 4 5 5 5 5 5 5
12 13 14 15 15 15 15 15 15 14 13 11 11 10 9 9 8 7 6 6 6 6 5 4 4 4 4 3 3 3 3 3 3 4 4 4 5 5 5 5 6 6 6
11 11 13 14 14 14 15 14 15 14 13 11 10 10 9 9 9 8 6 6 6 6 6 5 4 4 4 4 4 4 4 4 5 5 5 5 5 6 6 6 6 7 7
10 10 11 13 13 14 14 13 14 14 13 12 11 10 9 8 8 7 6 6 6 6 6 5 5 4 5 5 5 6 6 5 5 5 5 6 6 6 6 6 7 8 9
10 10 11 11 12 13 13 13 13 14 13 12 11 10 9 8 8 7 6 6 6 6 6 6 6 6 6 6 6 6 6 6 6 6 6 6 6 6 6 7 7 8 8
9 9 9 11 12 11 11 12 13 13 13 12 11 10 9 8 8 8 7 6 6 7 7 8 7 7 7 7 6 6 6 6 6 7 6 6 6 7 7 7 7 7 8
10 9 9 10 10 10 10 11 12 12 12 11 11 10 9 9 9 8 6 6 7 8 8 8 8 8 7 7 7 6 6 6 6 7 7 7 8 7 7 7 7 7 8
10 10 10 10 9 10 10 10 10 11 11 10 11 11 10 10 10 9 7 7 8 8 9 8 8 8 8 8 8 8 7 7 7 7 7 8 8 7 7 8 8 9 10
10 11 12 11 10 11 11 10 10 10 10 10 11 12 11 10 9 8 8 8 8 9 9 9 9 9 9 9 8 8 8 8 7 7 7 8 8 9 9 9 9 10 10
12 11 11 11 11 11 12 12 11 10 11 11 12 12 13 12 10 10 9 9 9 9 9 9 10 10 10 9 9 9 9 9 8 8 9 8 9 10 10 10 11 11 12
14 13 12 12 12 12 12 13 13 12 12 13 13 13 13 14 12 12 10 9 9 10 10 10 10 11 11 11 11 10 10 9 9 9 10 10 11 11 11 11 12 12 13
16 15 14 15 14 14 14 13 13 13 13 13 14 14 14 15 14 13 10 9 10 11 11 11 11 11 12 12 12 11 10 10 10 11 12 12 12 13 13 13 13 13 14
18 17 16 16 15 15 16 14 14 13 14 14 15 15 15 15 15 14 13 11 11 11 12 12 13 12 12 12 12 12 11 12 12 13 13 13 13 14 14 14 14 14 14
19 19 18 17 17 17 17 16 15 14 14 15 15 15 15 15 15 15 13 11 11 12 12 13 13 13 13 13 13 13 12 13 13 13 13 14 14 15 15 15 15 16 16
21 20 20 20 19 18 17 17 16 16 16 16 16 16 16 16 16 16 14 12 12 12 13 13 14 14 14 14 14 13 13 14 14 14 15 16 16 16 16 17 17 17 18
22 22 21 20 19 19 18 18 17 17 18 18 18 17 17 17 16 16 15 13 13 14 14 15 15 15 15 15 15 15 15 15 15 15 16 16 17 17 17 17 17 18 18
23 23 21 21 21 20 20 19 19 19 19 19 18 17 18 17 17 16 15 15 15 15 15 16 16 16 16 16 16 16 16 16 16 17 17 17 18 18 18 18 18 19 19
23 22 21 21 22 22 21 21 21 20 20 20 20 19 19 19 18 17 16 16 16 17 17 17 17 18 17 17 17 16 16 17 17 17 18 18 18 18 18 19 19 19 20
24 23 21 21 22 21 22 22 21 21 20 21 21 21 20 19 19 18 18 19 19 19 18 18 18 19 19 18 18 17 17 18 18 18 18 19 19 19 20 20 21 21 22
23 23 23 22 22 21 21 21 21 22 21 21 21 21 20 20 19 19 19 20 20 20 20 20 20 20 20 20 19 19 19 19 19 19 20 20 20 21 21 22 22 23 23
24 24 24 24 23 22 22 22 22 22 22 22 21 22 22 21 22 22 21 21 21 22 22 22 22 22 21 21 21 20 21 21 21 21 21 21 22 22 23 23 24 24 24
26 26 26 26 25 25 23 23 23 23 24 23 24 24 23 23 22 22 22 22 22 23 23 23 23 22 23 23 22 22 22 22 23 22 22 23 23 24 24 24 24 25 26
28 27 27 27 27 26 25 25 24 23 23 24 24 25 25 24 24 23 22 22 23 23 23 23 22 22 23 23 23 23 24 25 24 24 24 24 24 25 25 25 26 27 28
30 30 30 28 27 26 25 25 25 25 25 25 25 25 25 25 24 24 24 24 24 25 25 25 24 23 22 23 24 25 26 26 26 26 26 25 26 26 27 27 28 28 29
32 31 30 29 28 27 26 26 26 26 25 25 24 24 25 25 25 25 26 26 27 27 27 26 26 25 24 24 25 26 26 26 26 27 26 26 27 27 28 28 29 30 30
Wind_Direction
21 21 20 19 19 20 21 21 21 20 20 23 24 27 27 28 31 34 33 32 31 30 36 36 19 3 343 325 299 291 284 291 297 295 294 290 287 284 285 285 276 267 260
14 14 13 14 14 13 14 16 18 17 16 17 17 20 22 24 27 29 30 31 30 27 22 6 3 1 354 337 318 302 309 308 292 290 296 293 289 282 282 279 274 270 264
7 8 7 9 9 10 9 11 15 13 14 15 16 18 19 24 24 25 27 28 29 21 8 355 349 355 349 333 316 310 300 306 290 281 287 292 293 293 286 273 268 267 269
358 359 4 6 4 4 3 5 8 9 9 10 11 11 16 20 20 19 19 18 21 15 5 2 353 346 345 339 330 317 307 296 285 277 278 288 292 292 287 273 268 267 267
346 349 352 357 359 359 360 0 2 4 6 7 7 7 8 9 11 11 10 9 6 3 2 358 353 339 332 328 325 313 304 296 286 279 278 284 290 288 282 275 273 272 268
334 341 344 347 350 352 355 358 359 360 1 2 4 5 4 2 1 0 357 358 357 353 354 349 349 345 337 326 321 316 305 292 283 284 282 285 288 288 283 280 275 276 271
322 327 329 336 339 341 345 349 353 356 357 357 358 358 356 354 351 348 346 349 350 347 345 341 338 336 333 323 317 314 310 302 291 281 279 282 285 285 285 284 276 276 275
312 316 318 321 327 329 333 340 345 350 352 357 354 351 348 344 344 341 336 335 334 334 336 338 338 336 332 328 325 317 310 304 301 291 279 277 284 284 283 282 279 282 284
306 309 310 311 315 323 326 332 336 341 345 347 347 346 343 340 338 336 330 327 327 328 329 334 334 334 329 325 324 323 312 305 298 292 284 286 285 283 285 285 284 284 284
302 306 309 307 309 317 322 323 325 328 333 336 339 337 334 332 333 334 334 333 328 323 323 328 330 327 324 322 321 324 316 305 296 295 290 289 287 287 290 287 287 287 286
293 296 302 307 307 310 312 314 314 316 323 326 328 328 330 326 324 324 320 322 321 318 315 316 320 321 318 317 313 315 316 306 297 294 296 294 292 290 287 286 287 287 287
284 289 292 299 300 301 305 307 310 311 315 319 321 320 323 327 323 318 315 313 313 313 313 313 315 317 318 315 312 310 314 311 303 300 300 297 295 292 288 286 286 286 286
277 286 290 293 294 294 296 299 304 305 309 314 316 314 319 322 319 319 310 301 302 304 305 309 310 311 313 313 312 305 307 308 303 298 295 295 296 295 292 288 287 286 288
274 281 284 286 289 290 292 293 297 298 303 306 307 310 315 317 315 312 305 297 296 298 300 303 307 308 307 307 309 306 302 301 301 297 295 294 294 294 293 290 288 287 289
271 275 278 282 285 287 286 288 290 291 295 297 299 304 307 308 310 309 305 297 296 295 298 302 306 307 306 305 303 303 302 301 300 297 295 296 295 292 292 292 292 290 290
270 273 276 280 283 282 281 283 285 287 288 291 291 296 300 301 305 308 299 294 295 297 300 301 301 302 304 305 305 305 304 304 302 298 295 295 294 292 293 293 293 293 293
268 271 274 277 277 276 277 278 278 283 285 289 291 293 298 304 304 304 296 293 295 297 300 301 301 300 301 301 301 300 302 302 302 300 297 295 292 290 293 294 295 295 295
267 268 271 273 274 275 273 273 276 278 280 283 285 290 294 298 299 299 294 291 292 295 298 301 301 301 301 299 297 297 299 298 298 298 297 295 293 291 293 296 297 295 295
267 268 270 273 274 274 271 271 271 272 275 279 283 285 289 290 291 293 292 292 292 294 296 299 301 302 302 299 296 296 298 298 297 296 294 293 293 292 292 293 294 294 294
267 268 272 275 276 275 272 272 272 274 277 277 278 280 283 285 286 285 287 289 291 292 294 297 299 300 301 301 301 298 298 297 295 294 293 293 294 291 290 292 293 294 295
265 267 270 273 273 272 272 269 271 274 276 275 275 276 283 283 282 282 284 285 287 289 290 293 295 296 297 298 300 298 298 298 295 294 293 292 293 293 294 293 293 294 296
266 266 269 271 269 268 267 269 271 273 275 276 276 278 281 282 278 278 281 283 283 285 288 289 291 292 294 295 296 296 297 297 296 295 294 294 293 294 295 295 294 293 294
265 264 266 268 268 266 268 270 271 272 274 275 277 277 278 279 278 279 282 284 284 285 287 286 287 288 290 292 293 294 295 298 297 295 294 294 293 293 293 294 294 293 294
263 264 266 266 266 268 270 270 271 272 274 274 275 276 276 278 278 278 281 282 283 285 285 286 286 288 290 290 291 292 294 294 295 294 293 292 292 293 293 292 292 293 293
262 264 265 266 265 266 268 270 272 273 274 274 273 275 274 276 278 279 281 280 281 283 284 286 287 288 290 290 291 293 294 294 295 294 292 291 291 293 293 292 293 293 292
259 262 263 264 264 266 268 269 271 272 272 272 270 273 276 276 276 277 278 279 280 281 285 286 286 287 288 290 291 293 294 295 295 294 294 293 294 294 293 293 294 294 293
Height
5923 5921 5919 5917 5915 5914 5912 5909 5907 5905 5903 5901 5900 5898 5897 5896 5895 5893 5892 5891 5890 5890 5889 5889 5889 5889 5888 5888 5888 5888 5888 5887 5888 5888 5888 5888 5887 5887 5888 5888 5887 5887 5887
5924 5922 5920 5918 5916 5914 5912 5910 5908 5906 5904 5902 5900 5899 5898 5896 5895 5895 5893 5892 5891 5890 5890 5889 5889 5889 5888 5888 5887 5887 5887 5887 5887 5887 5887 5887 5887 5886 5886 5886 5886 5886 5887
5924 5922 5921 5919 5917 5915 5913 5911 5908 5906 5904 5902 5901 5899 5898 5897 5896 5895 5894 5893 5892 5891 5890 5890 5889 5889 5888 5887 5887 5886 5886 5886 5886 5886 5887 5886 5886 5886 5885 5885 5885 5885 5885
5924 5923 5921 5919 5917 5915 5913 5911 5909 5907 5905 5903 5901 5900 5899 5898 5897 5896 5895 5894 5893 5892 5891 5890 5889 5888 5888 5887 5886 5886 5885 5885 5885 5886 5886 5886 5885 5884 5884 5884 5884 5884 5884
5924 5923 5921 5919 5917 5915 5913 5911 5909 5907 5905 5903 5902 5901 5900 5898 5897 5896 5895 5894 5893 5892 5891 5890 5889 5888 5887 5886 5886 5885 5885 5884 5884 5884 5884 5884 5884 5883 5883 5883 5883 5883 5883
5923 5922 5921 5919 5917 5915 5913 5911 5909 5907 5905 5904 5902 5901 5900 5899 5898 5897 5896 5895 5894 5892 5891 5890 5889 5888 5887 5886 5885 5884 5884 5883 5883 5883 5883 5883 5882 5882 5881 5881 5881 5881 5881
5922 5921 5920 5918 5916 5915 5913 5911 5909 5907 5906 5904 5903 5901 5900 5899 5898 5897 5896 5895 5894 5892 5891 5890 5888 5887 5886 5885 5884 5883 5882 5882 5882 5881 5881 5881 5881 5881 5880 5880 5879 5879 5879
5921 5919 5918 5917 5915 5914 5912 5911 5909 5907 5906 5904 5902 5901 5900 5899 5897 5896 5895 5894 5893 5892 5891 5889 5888 5886 5885 5884 5883 5882 5881 5881 5880 5880 5880 5880 5880 5879 5879 5878 5878 5878 5877
5919 5917 5916 5914 5913 5912 5911 5910 5908 5907 5905 5903 5902 5901 5900 5898 5897 5895 5894 5893 5892 5891 5890 5889 5887 5886 5884 5883 5882 5881 5880 5879 5879 5878 5878 5878 5878 5877 5877 5876 5876 5876 5876
5916 5915 5914 5912 5911 5910 5910 5908 5907 5906 5904 5903 5902 5900 5899 5897 5896 5894 5893 5892 5891 5890 5889 5888 5886 5885 5883 5882 5881 5880 5879 5878 5877 5877 5876 5876 5876 5875 5875 5874 5874 5874 5873
5913 5913 5912 5911 5910 5909 5908 5906 5905 5904 5903 5901 5900 5899 5897 5896 5894 5893 5892 5891 5890 5889 5888 5886 5885 5883 5882 5881 5880 5879 5877 5876 5876 5875 5874 5874 5874 5873 5873 5872 5872 5871 5871
5910 5909 5909 5908 5907 5906 5905 5904 5903 5902 5901 5900 5898 5897 5895 5894 5893 5891 5889 5889 5888 5887 5886 5885 5883 5882 5881 5879 5878 5877 5876 5875 5874 5873 5873 5872 5871 5871 5870 5869 5869 5868 5867
5906 5906 5905 5905 5904 5903 5903 5902 5901 5900 5899 5897 5896 5894 5893 5892 5891 5889 5886 5886 5885 5885 5884 5883 5881 5880 5879 5877 5876 5875 5874 5873 5872 5871 5870 5870 5869 5868 5867 5866 5866 5865 5864
5902 5902 5902 5901 5901 5900 5899 5899 5898 5897 5896 5895 5894 5892 5891 5890 5888 5887 5885 5884 5883 5882 5882 5880 5879 5877 5876 5875 5874 5873 5872 5871 5870 5869 5868 5867 5866 5865 5864 5863 5862 5862 5861
5897 5897 5897 5897 5897 5896 5896 5895 5895 5894 5893 5892 5891 5890 5889 5887 5886 5884 5882 5881 5881 5880 5879 5878 5876 5875 5873 5872 5871 5870 5869 5868 5867 5866 5865 5864 5863 5862 5861 5860 5859 5858 5858
5891 5892 5892 5892 5892 5891 5891 5891 5891 5890 5890 5889 5888 5887 5886 5885 5883 5881 5879 5878 5878 5877 5876 5875 5873 5872 5871 5869 5868 5867 5866 5865 5864 5863 5861 5860 5859 5858 5857 5856 5855 5854 5854
5886 5886 5886 5886 5886 5887 5887 5887 5886 5886 5885 5885 5884 5883 5882 5881 5879 5878 5877 5876 5875 5874 5873 5871 5870 5869 5867 5866 5865 5864 5863 5861 5860 5859 5857 5857 5855 5854 5853 5852 5851 5850 5849
5879 5880 5880 5881 5881 5881 5881 5881 5881 5881 5881 5881 5880 5879 5878 5877 5876 5874 5873 5872 5871 5870 5869 5868 5866 5865 5864 5862 5861 5860 5859 5857 5856 5855 5853 5852 5851 5851 5849 5848 5847 5846 5844
5873 5873 5874 5874 5875 5875 5875 5875 5875 5876 5876 5876 5876 5875 5874 5872 5871 5870 5869 5868 5868 5867 5865 5864 5863 5861 5859 5858 5857 5855 5854 5853 5852 5851 5849 5848 5847 5846 5845 5844 5842 5841 5839
5866 5867 5868 5868 5869 5869 5869 5870 5870 5870 5871 5871 5870 5870 5869 5868 5866 5865 5865 5864 5863 5862 5861 5860 5859 5857 5855 5854 5852 5851 5850 5849 5848 5846 5845 5844 5842 5841 5840 5839 5837 5835 5834
5860 5861 5861 5862 5863 5863 5864 5864 5864 5865 5865 5865 5864 5864 5863 5862 5862 5861 5860 5859 5858 5857 5856 5855 5854 5852 5851 5849 5848 5847 5845 5844 5843 5841 5840 5838 5837 5836 5834 5832 5831 5829 5827
5853 5854 5854 5855 5857 5857 5858 5858 5859 5859 5859 5858 5858 5858 5857 5856 5856 5855 5854 5853 5853 5852 5850 5849 5848 5847 5845 5844 5843 5842 5840 5839 5838 5836 5834 5832 5831 5830 5828 5826 5824 5823 5821
5846 5847 5848 5848 5849 5850 5851 5852 5852 5852 5852 5852 5852 5851 5851 5850 5849 5849 5848 5847 5847 5846 5845 5843 5842 5841 5840 5838 5837 5836 5834 5833 5831 5830 5828 5826 5825 5823 5822 5820 5818 5816 5814
5839 5840 5841 5842 5842 5843 5844 5845 5845 5845 5845 5845 5845 5845 5845 5844 5843 5842 5841 5841 5840 5840 5838 5837 5835 5834 5833 5832 5831 5830 5828 5827 5825 5823 5821 5820 5818 5817 5815 5813 5811 5809 5806
5831 5833 5834 5835 5835 5836 5837 5837 5838 5838 5838 5838 5838 5838 5837 5837 5836 5835 5835 5834 5834 5833 5832 5830 5829 5828 5827 5826 5825 5823 5821 5819 5818 5816 5815 5813 5811 5809 5807 5805 5803 5801 5799
5823 5825 5826 5827 5827 5828 5829 5829 5830 5830 5830 5830 5830 5830 5830 5829 5828 5828 5827 5827 5826 5826 5825 5823 5822 5821 5820 5819 5818 5816 5814 5813 5811 5810 5808 5806 5804 5802 5799 5797 5795 5793 5791